Date,TemperatureHighF,TemperatureAvgF,TemperatureLowF,DewpointHighF,DewpointAvgF,DewpointLowF,HumidityHigh,HumidityAvg,HumidityLow,PressureMaxIn,PressureMinIn,WindSpeedMaxMPH,WindSpeedAvgMPH,GustSpeedMaxMPH,PrecipitationSumIn
2013-3-1,42.8,37.2,32.8,30.1,25.9,20.7,76,64,46,29.90,29.73,12,7,19,0.00
2013-3-2,34.0,30.9,28.1,21.9,19.0,16.8,67,61,49,29.90,29.83,11,7,21,0.00
2013-3-3,37.3,30.9,27.2,21.2,17.7,14.9,78,58,45,29.93,29.83,13,8,22,0.00
2013-3-4,62.9,32.4,25.4,35.0,15.4,-99.9,66,51,34,30.05,29.94,15,2,22,0.00
2013-3-5,62.1,37.9,21.4,34.0,19.5,10.8,83,51,23,30.09,29.81,10,3,13,0.00
2013-3-6,40.2,35.4,31.7,33.1,30.6,24.1,98,84,56,30.04,29.71,19,9,27,0.37
2013-3-7,46.6,38.9,32.5,28.7,26.6,23.9,75,62,45,30.18,30.03,16,7,24,0.00
2013-3-8,47.0,39.4,32.8,27.6,25.3,22.2,81,58,42,30.31,30.16,16,8,24,0.00
2013-3-9,57.7,41.0,25.0,27.4,22.9,19.6,85,52,24,30.38,30.26,6,2,9,0.00
2013-3-10,62.7,45.6,26.8,29.8,24.7,19.2,90,51,23,30.31,30.18,12,5,20,0.00
2013-3-11,58.5,50.3,41.9,47.8,37.1,19.5,84,62,31,30.19,29.84,15,8,23,0.00
2013-3-12,56.5,49.8,40.1,52.1,40.8,26.2,97,72,51,29.96,29.73,17,10,26,0.62
2013-3-13,46.4,37.9,29.9,28.2,22.3,15.6,80,54,33,30.06,29.90,19,8,29,0.00
2013-3-14,41.8,34.1,29.3,17.9,14.4,11.4,58,45,30,30.13,30.05,18,10,27,0.00
2013-3-15,54.1,41.9,26.5,32.1,23.8,14.1,72,50,33,30.10,29.78,13,6,19,0.00
2013-3-16,45.4,39.2,33.9,39.0,33.5,30.4,93,80,65,29.95,29.66,12,4,18,0.04
2013-3-17,39.2,35.4,32.7,32.4,25.9,19.5,92,70,49,30.26,29.93,13,4,21,0.00
2013-3-18,35.0,33.0,30.9,31.4,24.5,16.2,97,73,50,30.30,29.90,9,4,15,0.26
2013-3-19,55.1,39.5,32.0,38.2,26.9,4.8,99,69,16,29.93,29.73,26,6,36,0.00
2013-3-20,48.6,38.8,30.5,26.0,15.4,11.5,69,40,23,29.97,29.76,17,9,23,0.00
2013-3-21,34.6,29.6,25.6,23.1,11.3,4.9,65,47,32,29.90,29.78,15,7,22,0.00
2013-3-22,41.2,32.7,25.4,18.5,15.5,9.8,59,50,36,30.02,29.87,16,8,30,0.00
2013-3-23,50.0,36.6,24.1,24.0,19.5,16.9,75,52,30,30.04,29.92,12,5,18,0.00
2013-3-24,41.8,33.8,24.7,30.5,22.0,19.2,90,64,43,30.02,29.65,7,2,11,0.00
2013-3-25,36.5,33.3,31.1,33.8,31.7,29.6,98,94,85,29.71,29.53,7,2,8,0.53
2013-3-26,48.9,38.6,30.1,36.7,29.3,21.7,99,73,37,30.01,29.71,12,5,22,0.00
2013-3-27,46.6,40.0,35.3,33.0,26.7,23.1,72,60,41,30.13,30.00,15,6,22,0.00
2013-3-28,47.3,40.8,36.0,29.2,27.7,23.8,73,60,44,30.23,30.08,15,7,22,0.00
2013-3-29,54.0,44.2,36.2,31.6,27.6,23.1,74,54,31,30.26,30.14,13,4,22,0.00
2013-3-30,57.6,42.4,27.2,31.5,25.4,19.1,92,58,23,30.24,30.09,9,2,11,0.00
2013-3-31,46.7,42.6,33.7,45.0,36.6,26.4,98,81,55,30.10,29.74,8,2,11,0.22